GFSFLT2_con_3kmhel_012.txt.gz
Helicity
193 178 193 167 151 146 123 124 124 54 39 37 39 49 34 36 21 8 12 18 27 33 39 44 47 42 45
211 202 186 152 141 137 125 122 103 50 37 27 31 3 11 10 1 -2 7 20 20 28 24 19 19 31 43
215 182 168 154 133 121 117 112 107 63 28 21 21 9 11 18 -2 9 11 4 -2 -4 6 24 23 27 35
198 179 155 133 127 124 111 116 105 99 64 75 23 31 24 34 24 19 12 4 -6 5 2 -4 -15 -13 -3
168 163 135 113 116 136 130 110 123 110 122 118 123 143 130 82 77 55 30 3 28 39 31 4 -31 -35 -26
147 111 118 136 147 123 140 137 152 107 112 143 116 137 156 149 70 58 40 39 43 53 26 -22 -35 -43 -42
110 116 114 105 125 160 128 147 133 144 126 152 116 142 150 120 49 86 71 68 30 -9 -20 -7 1 -4 71
97 93 103 93 100 106 100 115 119 121 121 163 155 121 102 128 96 37 73 78 23 27 23 1 -17 19 31
21 20 23 18 49 102 96 93 90 111 141 138 121 104 94 121 89 46 148 121 97 62 41 13 -22 -12 54
80 67 70 99 42 86 115 99 102 117 147 113 85 61 52 124 130 144 153 176 151 126 81 36 21 88 120
92 112 118 118 120 125 137 165 152 173 167 99 106 78 100 98 134 156 155 197 213 187 121 86 51 50 85
112 122 124 131 126 136 137 142 173 188 177 141 177 90 40 64 123 120 153 151 133 155 141 70 54 33 36
100 111 123 151 151 144 140 146 166 177 175 140 136 54 14 19 58 106 81 124 77 84 105 136 141 145 99
98 121 144 144 150 151 160 176 175 189 159 145 120 67 19 30 18 64 55 114 106 103 108 114 115 122 131
117 137 154 147 165 158 169 181 179 187 174 153 130 114 116 85 84 91 57 98 83 122 75 69 139 138 110
128 155 172 171 171 175 174 177 191 179 127 130 83 99 98 100 81 69 106 124 132 52 79 80 121 121 58
151 176 183 182 137 195 195 171 149 151 168 149 122 98 136 194 137 71 -2 127 94 115 100 116 102 103 56

GFSFLT2_con_3kmhel_015.txt.gz
Helicity
182 158 157 151 162 149 127 145 114 64 77 74 75 87 83 66 53 39 22 25 33 33 46 46 47 45 39
180 160 173 189 181 160 141 122 126 65 41 42 49 53 22 26 28 31 33 46 55 49 45 40 34 47 47
201 198 216 185 157 146 136 113 96 62 37 34 39 36 35 39 48 47 49 44 43 37 28 24 28 27 27
212 206 185 131 143 138 101 102 104 104 84 54 37 48 45 54 47 39 34 44 38 24 17 18 19 12 6
212 169 148 120 127 114 124 110 115 99 102 135 112 149 143 92 67 49 46 46 29 14 16 25 23 19 26
175 143 130 118 119 120 131 122 105 90 119 97 122 134 128 135 63 65 78 56 27 20 29 45 44 34 13
137 129 127 113 125 143 120 126 122 123 124 119 125 144 137 119 81 71 73 67 57 52 78 72 60 49 38
127 122 123 108 102 109 109 126 134 119 112 146 142 142 115 113 75 14 47 75 89 73 71 70 63 49 32
30 33 39 37 63 109 114 123 120 118 115 123 125 147 112 102 44 3 61 86 115 90 80 71 65 52 43
92 75 77 96 60 110 137 152 154 126 150 171 138 110 29 131 54 110 99 88 82 111 102 84 82 76 69
58 81 87 104 115 120 132 166 155 183 196 123 181 158 174 69 90 95 106 129 136 133 117 105 106 98 93
73 90 103 121 129 133 136 146 179 203 200 164 201 165 139 3 73 62 95 113 90 109 117 87 81 80 77
86 108 117 136 125 124 129 142 158 174 186 171 181 169 174 42 59 91 45 76 38 2 43 71 82 111 99
100 104 106 110 117 127 140 151 166 182 145 158 163 160 105 86 62 103 85 59 74 80 53 48 41 58 28
104 105 110 108 126 132 154 174 178 126 96 113 140 145 151 112 107 128 127 122 121 119 65 42 77 93 79
110 127 139 142 145 147 147 140 121 116 109 120 117 114 123 150 188 181 191 168 153 110 61 32 94 109 88
137 163 166 176 117 142 122 121 123 125 162 166 157 136 152 200 167 111 65 152 106 94 123 154 156 172 117

GFSFLT2_con_3kmhel_018.txt.gz
Helicity
194 167 167 162 169 181 168 174 156 92 95 88 89 109 97 87 76 69 62 54 40 40 52 50 47 47 40
182 187 178 179 182 191 187 156 149 89 74 71 82 90 85 74 76 91 77 72 64 68 66 63 47 52 62
200 207 202 176 182 183 166 140 137 78 55 55 69 69 71 80 91 87 73 70 64 57 53 51 58 51 51
224 218 186 153 187 172 132 122 110 106 92 46 54 61 88 88 92 77 62 63 58 48 36 28 34 34 41
231 210 167 186 168 125 118 106 103 111 99 122 141 132 171 99 78 56 60 60 54 44 30 18 22 25 31
227 192 184 153 135 123 122 103 69 87 112 124 117 132 157 139 59 34 46 61 60 39 37 26 18 17 21
202 170 148 135 140 129 105 119 128 135 121 156 131 140 146 115 39 31 39 41 52 44 48 37 41 45 68
152 147 150 128 113 106 103 129 150 149 120 172 127 140 102 139 71 10 8 31 42 35 45 47 46 29 31
60 68 66 47 57 116 126 134 132 125 126 128 131 116 113 119 84 -4 6 43 60 70 47 38 40 32 26
113 90 76 81 52 116 145 152 140 94 134 167 158 119 60 127 88 163 153 78 43 50 46 49 50 57 46
58 59 69 90 115 133 136 164 146 189 191 134 217 182 196 179 115 168 181 160 153 133 66 51 48 44 53
55 64 84 105 112 124 125 137 178 196 179 167 220 195 162 47 46 149 168 186 155 59 55 55 39 29 23
55 78 102 121 115 124 128 138 155 167 170 147 156 129 162 150 142 169 95 176 93 18 13 28 61 71 15
67 78 84 104 115 127 125 113 102 107 135 119 100 124 147 190 188 220 199 138 101 72 77 63 47 13 -8
76 81 89 108 127 125 129 118 107 84 95 98 107 128 169 179 166 199 171 146 151 131 61 105 98 57 30
89 111 125 141 136 120 122 117 126 139 143 148 118 97 107 151 219 230 223 224 213 154 107 73 148 102 102
99 121 147 165 106 122 126 151 167 156 178 174 157 144 150 196 205 158 90 159 104 132 137 77 82 131 113

GFSFLT2_con_3kmhel_021.txt.gz
Helicity
200 178 175 141 146 161 158 183 187 127 114 101 96 78 76 73 62 65 63 84 84 66 64 67 58 64 61
181 176 163 144 146 156 170 176 176 107 74 69 55 54 62 75 68 83 92 85 76 84 78 55 54 54 66
183 165 150 144 161 176 192 186 172 81 49 51 43 71 87 71 86 87 77 74 76 67 55 46 43 45 43
186 189 157 142 173 181 185 169 150 133 91 34 55 80 83 81 87 82 75 69 65 68 64 47 46 42 34
182 200 179 167 181 183 182 147 131 112 108 102 121 142 160 122 99 67 67 66 68 65 57 45 45 34 34
200 190 180 179 195 167 158 134 87 49 102 109 121 161 167 145 58 31 38 36 42 51 52 51 45 39 26
194 191 188 167 160 153 132 119 120 121 114 134 144 167 141 127 37 27 12 13 29 41 54 62 51 49 32
187 171 180 138 132 117 106 124 133 123 119 185 136 147 131 163 80 -19 -24 2 35 48 64 76 66 52 33
92 92 69 54 64 110 124 122 114 122 134 123 159 148 149 137 72 4 5 24 28 43 63 69 55 33 32
128 88 78 86 58 118 148 153 146 124 151 185 169 140 110 217 180 193 156 74 38 33 41 39 11 44 33
73 71 79 82 96 117 131 181 170 215 212 132 228 213 246 257 267 225 207 176 168 142 77 19 -16 -5 4
67 64 62 74 82 106 117 139 186 212 155 118 223 223 198 222 231 239 227 216 187 153 104 42 -1 -10 -16
48 58 70 95 97 108 117 130 144 154 152 134 152 135 192 202 232 241 136 161 126 63 54 51 36 14 3
39 48 64 75 104 122 128 105 91 106 133 131 114 134 166 204 221 249 217 209 168 136 117 99 80 48 12
46 50 60 77 108 117 126 121 143 121 112 119 132 167 214 214 195 227 224 199 215 217 145 125 92 74 80
68 79 92 107 118 128 135 143 149 158 160 156 129 100 116 155 196 221 206 227 232 196 181 149 160 80 68
82 100 112 130 101 151 167 175 186 185 208 207 184 170 150 154 200 140 188 217 161 167 164 129 108 121 15

GFSFLT2_con_3kmhel_024.txt.gz
Helicity
174 171 170 137 133 140 129 138 138 91 99 107 116 106 100 89 91 75 59 49 52 42 43 30 53 53 65
178 166 145 135 126 126 126 131 139 100 86 108 115 109 100 95 77 46 46 44 39 31 41 49 45 42 43
182 152 132 129 139 121 131 139 145 90 94 101 106 93 72 58 39 42 33 28 36 40 44 45 44 42 41
181 170 148 115 134 117 119 147 146 144 117 83 73 76 64 52 48 52 49 57 55 52 54 58 59 47 41
177 179 159 143 120 130 134 127 147 155 158 143 140 184 196 116 83 53 57 53 49 50 55 52 51 51 45
169 150 142 133 157 135 146 163 144 104 167 154 134 172 196 162 64 36 35 34 44 47 42 44 50 57 54
153 153 137 140 142 175 163 142 148 147 134 131 143 176 152 135 52 45 30 30 42 40 44 47 44 56 58
151 138 147 132 144 137 115 131 142 122 110 143 125 170 135 159 81 2 2 23 29 20 18 24 32 62 53
83 109 117 108 102 120 112 101 90 97 130 137 157 156 123 124 71 20 47 36 29 13 -4 -24 -27 -53 -22
123 112 106 98 70 90 104 101 101 81 118 173 172 135 78 194 178 222 179 101 56 36 28 10 -5 28 127
89 104 97 85 84 88 92 139 134 194 204 127 248 202 224 260 228 226 204 167 169 140 81 27 -5 -24 110
83 76 74 82 87 90 96 120 173 194 161 150 246 238 228 198 230 196 205 227 197 149 127 88 37 29 23
58 75 75 74 87 86 100 122 138 158 161 139 168 141 194 233 265 246 174 193 174 128 131 151 148 92 44
33 33 53 75 81 91 103 95 97 144 159 152 136 158 203 249 245 291 221 235 188 180 189 178 147 136 127
57 61 64 64 89 99 117 128 161 174 167 155 153 174 219 242 241 219 199 208 238 233 172 157 131 98 120
77 80 77 86 94 101 127 150 168 177 175 166 161 130 130 152 153 202 222 226 245 213 182 170 147 100 99
95 96 95 107 87 119 134 145 161 178 211 216 203 180 179 192 231 122 171 201 145 162 163 168 181 161 42